Regional Weather Roundup
Issued by NWS Portland, ME

Current Version | Previous Version | Text Only | Print | Product List | Glossary Off
Versions: 1 2 3 4 5 6 7 8 9 10 11 12 13 14 15 16 17 18 19 20 21 22 23 24 25 26 27 28 29 30 31 32 33 34 35 36 37 38 39 40 41 42 43 44 45 46 47 48 49 50

000
ASUS41 KGYX 241305
RWRGYX
WEATHER ROUNDUP FOR MAINE AND NEW HAMPSHIRE
NATIONAL WEATHER SERVICE GRAY ME
900 AM EDT SAT JUN 24 2017

MEZ002-005-006-010-012-015-018-020-021-024-026-027-029-241400-
MAINE

CITY           SKY/WX    TMP DP  RH WIND       PRES   REMARKS
PORTLAND       CLOUDY    76  65  68 W10       29.50R
SANFORD        CLOUDY    75  71  87 SW9       29.51R
BAR HARBOR     FOG       63  63 100 SW9       29.47F VSB 3/4
WISCASSET      LGT RAIN  70  68  93 VRB3      29.50R FOG
ROCKLAND       CLOUDY    69  67  93 SW10G20   29.47S
FRYEBURG       CLOUDY    71  70  96 W5        29.51S
LEWISTONAUBURN CLOUDY    70  68  93 CALM      29.48F
AUGUSTA        CLOUDY    70  68  93 CALM      29.48F
WATERVILLE     LGT RAIN  69  68  96 SW5       29.45S
BANGOR         LGT RAIN  65  65 100 S7        29.46R VSB 1/2
GREENVILLE       N/A     65  65 100 CALM      29.46S
MILLINOCKET    LGT RAIN  67  67 100 CALM      29.45F
HOULTON        LGT RAIN  65  65 100 SW6       29.43S FOG
PRESQUE ISLE   LGT RAIN  64  63  96 SE8       29.40F
FRENCHVILLE    FOG       63  63 100 CALM      29.40R VSB<1/4
CARIBOU        LGT RAIN  64  63  96 S7        29.38F FOG
$$

NHZ002-005-008-009-011-012-014-241400-
NEW HAMPSHIRE

CITY           SKY/WX    TMP DP  RH WIND       PRES   REMARKS
PORTSMOUTH     CLOUDY    78  71  77 W12       29.51R
ROCHESTER      CLOUDY    74  68  81 VRB7      29.51R
NASHUA         CLOUDY    77  70  79 W9        29.54S
MANCHESTER     LGT RAIN  73  66  78 CALM      29.52S
CONCORD        CLOUDY    73  70  90 SW5       29.53R
PLYMOUTH       FAIR      71  67  86 CALM      29.53R
BERLIN         CLOUDY    70  65  84 CALM      29.53R
WHITEFIELD     CLOUDY    70  66  87 CALM      29.54R
JAFFREY        CLOUDY    70  68  93 VRB3      29.59R
KEENE          CLOUDY    71  68  90 CALM      29.57R
LEBANON        CLOUDY    74  70  87 CALM      29.53S
MT WASHINGTON  FOG       52  52 100 W46         N/A  VSB 0
$$

VTZ005-007-008-241400-
VERMONT

CITY           SKY/WX    TMP DP  RH WIND       PRES   REMARKS
ST JOHNSBURY     N/A     68  68 100 MISG      29.52R
MONTPELIER     CLOUDY    70  68  93 W3        29.59R
BURLINGTON     CLOUDY    71  67  87 NW5       29.55R
$$

MAZ007-012-024-CTZ003-RIZ002-NYZ038-NYZ072-241400-
SOUTHERN NEW ENGLAND AND NY

CITY           SKY/WX    TMP DP  RH WIND       PRES   REMARKS
BOSTON         CLOUDY    75  71  87 S13       29.55R
WORCESTER      CLOUDY    72  68  87 SW10      29.60R
NANTUCKET      CLOUDY    66  65  96 SW15      29.64S FOG
PROVIDENCE     RAIN      73  71  93 SW9       29.60R FOG
HARTFORD       LGT RAIN  74  71  91 S7        29.57R
ALBANY         CLOUDY    70  66  87 W7        29.60R
NEW YORK CITY  LGT RAIN  72  71  97 CALM      29.60R
$$

ANZ081-ANZ082-ANZ150-NHZ014-MEZ023>029-241400-
COASTAL MARINE OBSERVATIONS

STATION/POSITION TIME  TEMP    WIND        PRES    WAVE
                       AIR SEA DIR/SP/G            HT/PER
                 (UTC) (F)     (DEG/KT/KT) (MB)    (FT/S)
MATINICUS ROCK   1200   59     210/ 25/ 26  997.6F
ISLE OF SHOALS   1200   74     220/ 18/ 18  999.0R
JEFFREYS LEDGE   1206      60                N/A     5/ 6
CASHES LEDGE BUO 1150   65 58               998.9    6/ 7
GEORGES BANK BUO 1150   62 53              1006.5    5/ 6
$$

.............KEY..............
   WCI - WIND CHILL
   TC  - TEMPERATURE IN CELSIUS
   VSB - VISIBILITY IN MILES
   HX  - HEAT INDEX
   FAIR- INDICATES FEW OR NO CLOUDS BELOW 12,000 FT, WITH NO
         SIGNIFICANT WEATHER AND/OR OBSTRUCTIONS TO VISIBILITY.






USA.gov is the U.S. government's official web portal to all federal, state and local government web resources and services.